This demonstration page uses our WeatherBlox Daily Observations layout. Learn more.

Left ArrowRight Arrow

Hourly Observations for July 25, 2021

Temp ( °F °C ) Dew Point ( °F °C ) Humidity (%) Winds ( mph kmh ) Pressure ( in mb ) Visibility ( mi km ) Precip ( " mm )
12:54 am 00:54 Clear with Mist and Fog 72 22.2 70 21.1 94 94 N N/A 29.98 1015 6 10 N/A
1:54 am 01:54 Clear with Mist and Fog 70 21.1 68 20 93 93 N 6 9 29.98 1015 4 6 N/A
2:02 am 02:02 Clear with Mist and Fog 71 21.7 69 20.6 94 94 N 6 9 29.97 1015 2 3 N/A
2:11 am 02:11 Clear with Mist and Fog 70 21.1 69 20.6 97 97 N 5 7 29.97 1015 3 5 N/A
2:54 am 02:54 Clear 72 22.2 70 21.1 94 94 N N/A 29.98 1015 9 14 N/A
3:54 am 03:54 Clear 67 19.4 65 18.3 93 93 N 5 7 29.99 1016 9 14 N/A
4:22 am 04:22 Mostly Clear 66 18.9 64 17.8 93 93 NNW 3 6 29.99 1016 8 13 N/A
4:54 am 04:54 Partly Cloudy 68 20 66 18.9 93 93 N 5 7 29.99 1016 7 11 N/A
5:05 am 05:05 Mostly Cloudy with Mist and Fog 66 18.9 64 17.8 93 93 N 5 7 30.00 1016 3 4 N/A
5:17 am 05:17 Partly Cloudy with Mist and Fog 65 18.3 63 17.2 93 93 N 5 7 29.99 1016 5 8 N/A
5:43 am 05:43 Mostly Cloudy 67 19.4 65 18.3 93 93 NW 5 7 29.99 1016 10 16 N/A
5:54 am 05:54 Cloudy 67 19.4 65 18.3 93 93 NW 3 6 29.99 1016 9 14 N/A
6:14 am 06:14 Partly Cloudy with Mist and Fog 65 18.3 63 17.2 93 93 N 6 9 29.99 1016 3 4 N/A
6:29 am 06:29 Sunny with Mist and Fog 65 18.3 63 17.2 93 93 NNW 3 6 30.00 1016 5 8 N/A
6:54 am 06:54 Sunny with Mist and Fog 67 19.4 65 18.3 93 93 N 5 7 30.00 1016 5 8 N/A
7:06 am 07:06 Partly Cloudy with Mist and Fog 66 18.9 64 17.8 93 93 N 7 11 30.00 1016 3 5 N/A
7:54 am 07:54 Sunny 69 20.6 65 18.3 87 87 NNW 3 6 30.01 1016 8 13 N/A
8:54 am 08:54 Sunny with Mist and Fog 68 20 65 18.3 90 90 N 5 7 30.04 1017 5 8 N/A
9:54 am 09:54 Sunny 70 21.1 67 19.4 90 90 SE 5 7 30.06 1018 7 11 N/A
10:54 am 10:54 Sunny 73 22.8 68 20 84 84 N 8 13 30.06 1018 8 13 N/A
11:54 am 11:54 Sunny 76 24.4 71 21.7 85 85 N N/A 30.06 1018 7 11 N/A
12:54 pm 12:54 Sunny 80 26.7 62 16.7 54 54 SW 6 9 30.04 1017 10 16 N/A
1:54 pm 13:54 Sunny 83 28.3 58 14.4 43 43 N N/A 30.01 1016 10 16 N/A
2:54 pm 14:54 Sunny 86 30 61 16.1 43 43 NNW 3 6 29.99 1016 10 16 N/A
3:54 pm 15:54 Sunny 87 30.6 61 16.1 42 42 WNW 3 6 30.00 1016 10 16 N/A
4:54 pm 16:54 Sunny 86 30 62 16.7 45 45 N N/A 29.99 1016 10 16 N/A
5:54 pm 17:54 Sunny 87 30.6 62 16.7 43 43 VRB 3 6 29.98 1015 10 16 N/A
6:54 pm 18:54 Sunny 85 29.4 57 13.9 39 39 SE 7 11 29.97 1015 10 16 N/A
7:54 pm 19:54 Sunny 81 27.2 63 17.2 54 54 S 7 11 29.97 1015 10 16 N/A
8:54 pm 20:54 Clear 76 24.4 64 17.8 67 67 S 6 9 29.97 1015 10 16 N/A
9:54 pm 21:54 Clear 73 22.8 63 17.2 71 71 N N/A 29.99 1016 10 16 N/A
10:54 pm 22:54 Clear 68 20 63 17.2 84 84 N N/A 30.01 1016 10 16 N/A
11:54 pm 23:54 Clear 69 20.6 63 17.2 81 81 N N/A 30.01 1016 10 16 N/A

Powered by AerisWeather